www.pogodaiklimat.ru

Погода и климат >> Архив погоды >> Россия >> Дагестан >> Буйнакск


АРХИВ ПОГОДЫ в Буйнакске

Время (UTC), дата Ветер
(напр.,м/с)
 
Видим.   Явления Облачность Т
(С)
Тd
(С)
f
(%)
Тe
(С)
Тes
(С)
Комфортность P
(гПа)
Po
(гПа)
Тmin
(С)
Tmax
(С)
R
(мм)
R24
(мм)
S
(см)
06 17.07 С 3 10 км 3/0
[Ac trans]
+23.8 +14.8 57 +27 +35 жарко 1008.5 955.7
09 17.07 СВ 1 50 км 3/3 1000 м
[Cu med, cong]
+27.4 +14.5 45 +30 +45 жарко 1006.9 954.8
12 17.07 СВ 2 10 км 8/3 600 м
[Cb cap Ac As]
+27.9 +14.7 44 +30 +34 жарко 1006.5 954.5
15 17.07 СВ 1 20 км 10/0
[Ac und]
+25.7 +15.1 52 +29 +29 душно 1006.6 954.3 +29.3
18 17.07 штиль 0 10 км 10/0
[Ac und]
+23.6 +16.7 65 +27 +27 жарко 1007.4 954.6
21 17.07 З 2 10 км ясно +21.4 +16.1 72 +25 +25 комфорт 1007.6 954.5
00 18.07 штиль 0 10 км 1/0
[Ci fib]
+19.5 +15.4 77 +21 +21 комфорт 1006.9 953.5
03 18.07 Ю 1 50 км 1/0
[Ac trans]
+20.5 +15.3 72 +24 +26 комфорт 1007.3 954.0 +18.7
06 18.07 ЮВ 2 50 км ясно +28.4 +11.4 35 +29 +42 жарко 1005.1 953.2
09 18.07 В 3 50 км ясно +30.9 +13.0 33 +32 +48 жарко 1003.8 952.4
12 18.07 ЮВ 3 50 км ясно +30.6 +12.6 33 +31 +41 жарко 1003.4 952.0
15 18.07 СВ 2 50 км ясно +29.0 +13.2 38 +31 +32 жарко 1004.7 952.9 +31.5
18 18.07 З 1 10 км ясно +23.0 +14.5 59 +27 +27 душно 1008.1 955.2
21 18.07 штиль 0 10 км 10/0
[Ac und]
+21.8 +15.0 65 +25 +25 комфорт 1009.0 955.8
00 19.07 З 1 10 км 10/0
[Ac As Ci fib]
+22.0 +15.0 64 +25 +25 комфорт 1009.4 956.3
03 19.07 штиль 0 50 км 8/0
[Ac As]
+23.4 +15.4 61 +28 +29 душно 1010.2 957.3 +21.0
06 19.07 СВ 3 50 км ясно +28.5 +15.3 45 +31 +41 душно 1009.9 957.9
09 19.07 В 2 50 км ясно +31.1 +13.5 34 +32 +51 опасность
солнечного
удара
1010.3 958.6
12 19.07 СВ 2 50 км 3/0
[Ac As]
+31.0 +13.8 35 +32 +41 жарко 1010.1 958.4
15 19.07 СВ 2 50 км 8/0
[Ac As]
+28.5 +14.3 42 +31 +31 душно 1010.9 958.8 +31.9
18 19.07 штиль 0 10 км 8/0
[Ac As]
+26.1 +12.5 43 +28 +28 жарко 1013.1 960.4
21 19.07 штиль 0 10 км 9/3 600 м
[Cb cap Ac As]
+24.9 +15.0 54 +28 +28 жарко 1013.8 960.9
00 20.07 С 2 10 км 10/0
[Ac und]
+23.4 +16.5 65 +28 +28 душно 1014.5 961.4
03 20.07 штиль 0 20 км 10/0
[Ac und]
+22.0 +16.5 71 +26 +27 душно 1016.7 963.2 +21.3
06 20.07 З 1 50 км 10/0
[Ac As]
+24.6 +16.2 60 +28 +32 душно 1016.9 963.8
09 20.07 СВ 2 10 км 10/4 600 м
[Cb cap Ac As]
+29.0 +16.0 45 +32 +35 душно 1015.8 963.5
12 20.07 С 2 20 км 10/6 600 м
[Cb cap Ac As]
+28.2 +15.7 47 +31 +33 душно 1015.7 963.3
15 20.07 В 1 20 км 10/0
[Ac As]
+26.9 +16.0 51 +30 +30 душно 1016.0 963.3 +29.7
18 20.07 штиль 0 10 км 10/0
[Ac As]
+24.9 +17.5 63 +29 +29 душно 1017.2 964.2
21 20.07 штиль 0 10 км 10/0
[Ac As]
+23.5 +17.5 69 +27 +27 душно 1016.6 963.4
00 21.07 штиль 0 10 км 4/0
[Ac trans]
+22.3 +17.2 73 +27 +27 душно 1016.3 962.9
03 21.07 ЮЗ 1 50 км 1/0
[Ac trans]
+21.6 +16.5 73 +25 +27 комфорт 1016.5 963.0 +20.4
06 21.07 ЮВ 5-10
{11}
50 км 6/0
[Ac As]
+29.7 +11.9 33 +30 +34 жарко 1013.8 961.7
09 21.07 ЮВ 6-13
{14}
50 км 3/0
[Ci fib]
+30.7 +11.3 30 +31 +38 жарко 1011.8 959.9
12 21.07 ЮВ 6-13
{15}
50 км 8/0
[Ci fib]
+30.4 +12.5 33 +31 +35 жарко 1010.2 958.4
15 21.07 ЮВ 4
{14}
50 км 8/0
[Ci fib]
+27.9 +13.4 41 +30 +30 жарко 1009.9 957.7 +31.3
18 21.07 СВ 1 10 км 1/0
[Ci fib]
+23.1 +16.7 67 +28 +28 душно 1011.5 958.4
21 21.07 штиль 0 10 км 9/0
[Ac As]
+20.8 +16.1 74 +24 +24 комфорт 1011.6 958.1
00 22.07 штиль 0 10 км 6/0
[Ac As]
+21.1 +14.8 67 +24 +24 комфорт 1011.7 958.3
03 22.07 штиль 0 50 км 10/0
[Ac und]
+22.6 +16.1 67 +27 +28 душно 1011.4 958.3 +20.5
06 22.07 СВ 1 50 км 10/5 1000 м
[Cu med, cong Ac As Ci fib]
+28.3 +16.3 48 +32 +35 душно 1010.1 958.0
09 22.07 С 3 50 км 10/0
[Ac As Ci fib]
+30.2 +16.0 42 +33 +39 душно 1009.3 957.6
12 22.07 С 4
{12}
50 км 10/8 1000 м
[Cb cap Ac As]
+28.7 +15.7 45 +32 +32 душно 1010.3 958.2
15 22.07 С 2 20 км 10/0
[Ac und]
+27.8 +13.5 41 +30 +30 жарко 1011.7 959.4 +31.5
18 22.07 С 1 10 км 10/0
[Ac und]
+25.2 +14.2 50 +28 +28 жарко 1013.5 960.7
21 22.07 штиль 0 10 км 10/0
[Ac und]
+23.3 +13.6 54 +27 +27 душно 1014.6 961.4
00 23.07 СВ 1 10 км гроза без осадков 10/10 600 м
[Cb cap]
+21.6 +15.6 69 +25 +25 комфорт 1013.5 960.1
03 23.07 штиль 0 50 км {гроза} 6/0
[Ac As]
+19.9 +16.1 79 +22 +23 комфорт 1014.4 960.6 +19.7
06 23.07 З 1 50 км в посл. час ливневой дождь {гроза} 8/3 1000 м
[Cb cap Ac As]
+24.0 +16.6 63 +27 +32 жарко 1011.7 958.8
09 23.07 СВ 1 50 км гроза без осадков {ливн. осадки} 8/4 1000 м
[Cb cap Ac As]
+25.1 +16.3 58 +28 +35 жарко 1010.8 958.1
12 23.07 Ю 2 20 км гроза без осадков {ливн. осадки} 10/6 600 м
[Cb cap Ac As]
+24.8 +16.5 60 +28 +30 жарко 1009.9 957.3
15 23.07 Ю 1 20 км 10/3 600 м
[Cb cap Ac As]
+22.7 +17.0 70 +27 +28 душно 1009.9 956.9 +28.8 0.5
18 23.07 ЮЗ 1 10 км {гроза} 5/0
[Ac As]
+21.2 +17.4 79 +25 +25 комфорт 1011.3 958.0
21 23.07 С 1 10 км слаб. ливневой дождь 10/10 600 м
[Cb cap]
+21.0 +17.1 78 +26 +26 душно 1010.3 957.0
00 24.07 штиль 0 10 км {ливн. осадки} 10/5 600 м
[Cb cap Ac As]
+19.8 +17.2 85 +22 +22 комфорт 1009.5 956.0
03 24.07 ЮЗ 1 50 км 5/0
[Ac As]
+19.6 +17.3 87 +23 +24 комфорт 1009.2 955.7 +19.0 0.3

 

Местоположение метеостанции Буйнакск (Дагестан, Россия): широта 42.82 долгота 47.12 высота над уровнем моря 466 м.

В архиве по умолчанию представлена погода в Буйнакске за последнюю неделю. Архивные данные за месяц целиком и за предыдущие месяцы, начиная с января 2011 года, Вы можете получить, выбрав интересующий диапазон дат из раскрывающегося списка и нажав кнопку "Ввод!".


*Определитесь, кто Вы:
робот инопланетянин человек

Внимание! Время в таблицах - всемирное. Для получения местного времени необходимо прибавить поправку, которая равна 3 ч.

Смотрите также архив погоды в соседних городах и на ближайших метеорологических станциях:

Погода в Махачкале (Дагестан, Россия) (37 км)
Погода в Куппе (Дагестан, Россия) (43 км)
Погода в Хунзахе (Дагестан, Россия) (44 км)
Погода в Гунибе (Дагестан, Россия) (48 км)
Погода в Сергокале (Дагестан, Россия) (61 км)
Погода в Хасавюрте (Дагестан, Россия) (65 км)
Погода в Изберге (Дагестан, Россия) (73 км)
Погода в Кумухе (Дагестан, Россия) (78 км)
Погода в Сулаке (высокогорная) (Дагестан, Россия) (87 км)
Погода в Бабаюрте (Дагестан, Россия) (91 км)

Пояснения к столбцам:

Ветер - указаны скорость ветра в м/с - средняя за 10 мин, порывы в срок и между сроками (в фигурных скобках) и направление, откуда дует ветер: С - северный, СВ - северо-восточный, В - восточный, ЮВ - юго-восточный, Ю - южный, ЮЗ - юго-западный, З - западный, СЗ - северо-западный.
Видимость - горизонтальная дальность видимости в метрах или километрах. При видимости от 1 до 10 км при отсутствии осадков обычно наблюдается дымка, при ухудшении видимости до 1 км и менее - туман. В сухую погоду видимость может ухудшаться дымом, пылью или мглою.
Явления - указаны атмосферные явления, наблюдавшиеся в срок или в последний час перед сроком; фигурными скобками обозначены явления, наблюдавшиеся между сроками (за 1-3 часа до срока); квадратными скобками обозначены град или гололедные отложения с указанием их диаметра в мм.
Облачность - указаны через наклонную черту общая и нижняя облачность в баллах и высота нижней границы облаков в метрах; квадратными скобками обозначены формы облаков: Ci - перистые, Cs - перисто-слоистые, Cc - перисто-кучевые, Ac - высококучевые, As - высокослоистые, Sc - слоисто-кучевые, Ns - слоисто-дождевые, Cu - кучевые, Cb - кучево-дождевые. Подробнее классификацию облаков см. в Атласе облаков (PDF).
T - Температура воздуха - температура, измеренная на высоте 2 м над землей.
Td - Температура точки росы - температура, при понижении до которой содержащийся в воздухе водяной пар достигнет насыщения.
f - Относительная влажность воздуха - влажноcть воздуха, измеренная на высоте 2 м над землей.
Te - Эффективная температура - температура, которую ощущает одетый по сезону человек в тени. Характеристика душности погоды. При расчете учитывается влияние влажности воздуха и скорости ветра на теплоощущения человека.
Tes - Эффективная температура на солнце - температура, которую ощущает человек, с поправкой на солнечный нагрев. Характеристика знойности погоды. Зависит от высоты солнца над горизонтом, облачности и скорости ветра. Ночью, в пасмурную погоду, а также при ветре 12 м/с и более поправка равна нулю.
P - Атмосферное давление - приведенное к уровню моря атмосферное давление.
Po - Атмосферное давление - измеренное на уровне метеостанции атмосферное давление.
Tmin - Минимальная температура - минимум температуры воздуха на высоте 2 м над землей.
Tmax - Максимальная температура - максимум температуры воздуха на высоте 2 м над землей.
R - Количество осадков - Количество выпавших осадков за период времени, мм. При наведении курсора мыши на число - период времени, за который выпало указанное количество осадков.
R24 - Количество осадков - Количество выпавших осадков за 24 часа, мм.
S - Снежный покров - Высота снежного покрова, см. При наведении курсора мыши на число - состояние снежного покрова и степень покрытия местности в баллах.